Home   Weather   Odda   Past weeks
Flag for Norway

Past Weather in Odda, Norway — Yesterday and Last 2 Weeks

Now
44 °F

Quite cool.


Feels Like: N/A
Forecast: 47 / 41 °F
Wind: N/A

Location: Sauda

Current Time: Oct 18, 2019 at 1:32:01 pm

Latest Report: Oct 18, 2019 at 12:00 pm


Visibility: N/A

Pressure: 29.66 "Hg

Humidity: 92%

Dew Point: 41 °F

Location of OddaLocation

Past Weather in Odda — Graph

°F

Odda Temperature Yesterday

Maximum temperature yesterday: 52 °F (at 6:00 pm)
Minimum temperature yesterday: 45 °F (at 7:00 am)
Average temperature yesterday: 48 °F

High & Low Weather Summary for the Past Weeks

 TemperatureHumidityPressure
High54 °F (Oct 15, 11:00 pm)96% (Oct 9, 8:00 pm)30.29 "Hg (Oct 9, 8:00 pm)
Low29 °F (Oct 7, 8:00 am)37% (Oct 4, 5:00 pm)29.21 "Hg (Oct 11, 8:00 pm)
Average44 °F84%29.72 "Hg
* Reported Oct 3 12:00 pm — Oct 18 12:00 pm, Odda. Weather by CustomWeather, © 2019

Note: Actual official high and low records may vary slightly from our data, if they occured in-between our weather recording intervals... More about our weather records

Advertising

Odda Weather History for the Previous 24 Hours

Scroll right to see more
 ConditionsComfort  
Time TempWeatherWind HumidityBarometerVisibility
12:00 pm
Fri, Oct 18
44 °FQuite cool.N/A92%29.66 "HgN/A
11:00 am42 °FQuite cool.N/A94%29.67 "HgN/A
10:00 am40 °FChilly.N/A95%29.69 "HgN/A
9:00 am39 °FChilly.N/A95%29.70 "HgN/A
8:00 am40 °FPassing clouds.N/A95%29.69 "Hg19 mi
7:00 am41 °FQuite cool.N/A96%29.70 "HgN/A
6:00 am42 °FQuite cool.N/A95%29.70 "HgN/A
5:00 am44 °FPassing clouds.N/A93%29.71 "Hg13 mi
4:00 am46 °FCool.N/A93%29.71 "HgN/A
3:00 am47 °FCool.N/A92%29.71 "HgN/A
2:00 am47 °FCool.N/A94%29.71 "HgN/A
1:00 am48 °FCool.N/A95%29.71 "HgN/A
12:00 am48 °FCool.N/A95%29.71 "HgN/A
11:00 pm
Thu, Oct 17
48 °FCool.N/A95%29.69 "HgN/A
10:00 pm49 °FCool.N/A95%29.69 "HgN/A
9:00 pm49 °FCool.N/A93%29.67 "HgN/A
8:00 pm49 °FLight rain. Overcast.N/A90%29.67 "Hg3 mi
7:00 pm50 °FCool.N/A87%29.66 "HgN/A
6:00 pm52 °FCool.N/A81%29.62 "HgN/A
4:00 pm49 °FCool.N/A94%29.63 "HgN/A
3:00 pm49 °FCool.N/A93%29.63 "HgN/A
2:00 pm49 °FLight rain. Overcast.N/A91%29.63 "Hg12 mi
1:00 pm49 °FCool.N/A89%29.63 "HgN/A
Weather by CustomWeather, © 2019

See weather overview